World > North America > United States > New York > Hancock  

Hancock, NY Hourly Weather Updates

Feedback E-mail the Weather

Quick WX

Hancock, NY Weather Maps

°F °C°F °C
Hancock Weather Map
UTC Time: 3/3/2024, 18:31
Your Time:

Hancock, NY Regional Weather

Expires:202403031900;;338774
ASUS41 KBGM 031810
RWRBGM

REGIONAL WEATHER ROUNDUP
NATIONAL WEATHER SERVICE BINGHAMTON NY
100 PM EST SUN MAR 03 2024

Note: "fair" indicates few or no clouds below 12,000 feet with no
significant weather and/or obstructions to visibility.

* = Station(s) that does not report precipitation, such as rain, 
snow, etc, also no thunder or fog.


NYZ009-015>018-022>025-036-037-044>046-055>057-062-031900
...Central New York...
  
CITY           SKY/WX    TMP DP  RH WIND       PRES   REMARKS
Binghamton     CLOUDY    49  42  77 N7        30.22F                  
Cortland       CLOUDY    45  41  87 NE7       30.24F                  
Dansville      CLOUDY    54  43  66 S3        30.23F                  
Elmira         CLOUDY    52  44  74 NE6       30.23F                  
Endicott       CLOUDY    50  45  81 CALM      30.23                   
Ithaca         CLOUDY    46  46 100 CALM      30.24F                  
Hamilton         N/A     43 N/A N/A N6        30.24S                  
Monticello     NOT AVBL                                               
Norwich        CLOUDY    46  41  81 N5        30.27S                  
Oneonta        CLOUDY    45  43  93 CALM      30.22S                  
Penn Yan       CLOUDY    49  43  80 E5        30.24F                  
Rome           CLOUDY    47  44  90 W5        30.26F                  
Seneca Falls   CLOUDY    48  43  81 NE5       30.26F                  
Sidney         CLOUDY    48  45  87 W3        30.23F                  
Skaneateles    CLOUDY    48  41  76 N3        30.25S                  
Syracuse       CLOUDY    48  42  80 NW5       30.26F                  
$$
 

SKY/WX - Weather  TMP - Temperature  DP - Dew Point  RH - Humidity
WIND - Wind Direction/Speed PRES - Barometric Pressure VSB - Visibility
WCI - Wind Chill Index E13G22 Wind - East Wind 13 mph/Gusts of 22 mph

Trending Headlines

Trending Entertainment Headlines

Hancock Radar Loop

Use the map search tool if you want to place a location marker on the radar map...

Hancock Quick Facts

National Two Day Weather Forecast


E-mail the Hancock Weather Forecast

Voice your opinion or tell us about page issues...